CAPE
0 0 0 0 0 0 0 0 0 0 0 0 0 0 0 0 0 0 0 0 0 0 0 0 0 0 0 0 0 0 0 0 0 0 0 0 0 0 0 0 0 0 0 0 0
0 0 0 0 0 0 0 0 0 0 0 0 0 0 0 0 0 0 0 0 0 0 0 0 0 0 0 0 0 0 0 0 0 0 0 0 0 0 0 0 0 0 0 0 0
0 0 0 0 0 0 0 0 0 0 0 0 0 0 0 0 0 0 0 0 0 0 0 0 0 0 0 0 0 0 0 0 0 0 0 0 0 0 0 0 0 0 0 0 0
0 0 0 0 0 0 0 0 0 0 0 0 0 0 0 0 0 0 0 0 0 0 0 0 0 0 0 0 0 0 0 0 0 0 0 0 0 0 0 0 0 0 0 0 0
0 0 0 0 0 0 0 0 0 0 0 0 0 0 0 0 0 0 0 0 0 0 0 0 0 0 0 0 0 0 0 0 0 0 0 0 0 0 0 0 0 0 0 0 0
0 0 0 0 0 0 0 0 0 0 0 0 0 0 0 0 0 0 0 0 0 0 0 0 0 0 0 0 0 0 0 0 0 0 0 0 0 0 0 0 0 0 0 0 0
0 0 0 0 0 0 0 0 0 0 0 0 0 0 0 0 0 0 0 0 0 0 0 0 0 0 0 0 0 0 0 0 0 0 0 0 0 0 0 0 0 0 0 0 0
0 0 0 0 0 0 0 0 0 0 0 0 0 0 0 0 0 0 0 0 0 0 0 0 0 0 0 0 0 0 0 0 0 0 0 0 0 0 0 0 0 0 0 0 0
0 0 0 0 0 0 0 0 0 0 0 0 0 0 0 0 0 0 0 0 0 0 0 0 0 0 0 0 0 0 0 0 0 0 0 0 0 0 0 0 0 0 0 0 0
0 0 0 0 0 0 0 0 0 0 0 0 0 0 0 0 0 0 0 0 0 0 0 0 0 0 0 0 0 0 0 0 0 0 0 0 0 0 0 0 0 0 0 0 0
0 0 0 0 0 0 0 0 0 0 0 0 0 0 0 0 0 0 0 0 0 0 0 0 0 0 0 0 0 0 0 0 0 0 0 0 0 0 0 0 0 0 0 0 0
0 0 0 0 0 0 0 0 0 0 0 0 0 0 0 0 0 0 0 0 0 0 0 0 0 0 0 0 0 0 0 0 0 0 0 0 0 0 0 0 0 0 0 0 0
0 0 0 0 0 0 0 0 0 0 0 0 0 0 0 0 0 0 0 0 0 0 0 0 0 0 0 0 0 0 0 0 0 0 0 0 0 0 0 0 0 0 0 0 0
2 1 0 0 0 0 0 0 0 0 0 0 0 0 0 0 0 0 0 0 0 0 0 0 0 0 0 0 0 0 0 0 0 0 0 0 0 0 0 0 0 0 0 0 0
4 1 0 0 0 0 0 0 0 0 0 0 0 0 0 0 0 0 0 0 0 0 0 0 0 0 0 0 0 0 0 0 0 0 0 0 0 0 0 0 0 0 0 0 0
0 0 0 0 0 0 0 0 0 0 0 0 0 0 0 0 0 0 0 0 0 0 0 0 0 0 0 0 0 0 0 0 0 0 0 0 0 0 0 0 0 0 0 0 0
0 0 0 0 0 0 0 3 0 0 0 0 0 0 0 0 0 0 0 0 0 0 0 0 0 0 0 0 0 0 0 0 0 0 0 0 0 0 0 0 0 0 0 0 0
0 0 0 0 0 0 3 4 0 0 0 0 0 0 0 0 0 0 0 0 0 0 0 0 0 0 0 0 0 0 0 0 0 0 0 0 0 0 0 0 0 0 0 0 0
0 0 0 0 0 11 15 3 0 0 0 0 0 0 0 0 0 0 0 0 0 0 0 0 0 0 0 0 0 0 0 0 0 0 0 0 0 0 0 0 0 0 0 0 0
0 0 0 0 0 1 1 1 0 0 0 0 0 0 0 0 0 0 0 0 0 0 0 0 0 0 0 0 0 0 0 0 0 0 0 0 0 0 0 0 0 0 0 0 0
0 0 0 0 13 0 0 0 0 0 0 0 0 0 0 0 0 0 0 0 0 0 0 0 0 0 0 0 0 0 0 1 3 0 0 0 0 0 0 0 0 0 0 0 0
0 0 0 16 0 0 0 0 0 0 0 0 0 0 0 0 0 0 0 0 0 0 0 0 0 0 0 0 0 0 0 0 7 0 5 12 0 0 0 0 0 0 0 0 0
0 0 0 12 0 1 0 0 0 0 0 0 0 0 0 0 0 0 0 0 0 0 0 0 0 0 0 0 0 0 0 0 0 0 0 2 0 0 0 0 0 0 0 0 0
0 1 0 29 0 0 0 0 0 0 0 0 0 0 0 0 0 0 0 0 0 0 0 0 0 0 0 0 0 0 0 0 0 0 0 0 0 0 0 0 0 0 0 0 0
0 0 0 1 1 0 0 0 0 0 0 0 0 0 0 0 0 0 0 0 0 0 0 0 0 0 0 0 0 0 0 0 0 0 0 0 0 0 0 0 0 0 0 0 0
0 0 0 0 0 0 0 0 0 0 0 0 0 0 0 0 0 0 0 0 0 0 0 0 0 0 0 0 0 0 0 0 0 0 0 0 0 0 0 0 0 0 0 0 0
0 0 0 0 0 0 0 0 0 0 0 0 0 0 0 0 0 0 0 0 0 0 0 0 0 0 0 0 0 0 0 0 0 0 0 0 0 0 0 0 0 0 0 0 0
CIN
0 0 0 0 0 0 0 0 0 0 0 0 0 0 0 0 0 0 0 0 0 0 0 0 0 0 0 0 0 0 0 0 0 0 0 0 0 0 0 0 0 0 0 0 0
0 0 0 0 0 0 0 0 0 0 0 0 0 0 0 0 0 0 0 0 0 0 0 0 0 0 0 0 0 0 0 0 0 0 0 0 0 0 0 0 0 0 0 0 0
0 0 0 0 0 0 0 0 0 0 0 0 0 0 0 0 0 0 0 0 0 0 0 0 0 0 0 0 0 0 0 0 0 0 0 0 0 0 0 0 0 0 0 0 0
0 0 0 0 0 0 0 0 0 0 0 0 0 0 0 0 0 0 0 0 0 0 0 0 0 0 0 0 0 0 0 0 0 0 0 0 0 0 0 0 0 0 0 0 0
0 0 0 0 0 0 0 0 0 0 0 0 0 0 0 0 0 0 0 0 0 0 0 0 0 0 0 0 0 0 0 0 0 0 0 0 0 0 0 0 0 0 0 0 0
0 0 0 0 0 0 0 0 0 0 0 0 0 0 0 0 0 0 0 0 0 0 0 0 0 0 0 0 0 0 0 0 0 0 0 0 0 0 0 0 0 0 0 0 0
0 0 0 0 0 0 0 0 0 0 0 0 0 0 0 0 0 0 0 0 0 0 0 0 0 0 0 0 0 0 0 0 0 0 0 0 0 0 0 0 0 0 0 0 0
0 0 0 0 0 0 0 0 0 0 0 0 0 0 0 0 0 0 0 0 0 0 0 0 0 0 0 0 0 0 0 0 0 0 0 0 0 0 0 0 0 0 0 0 0
0 0 0 0 0 0 0 0 0 0 0 0 0 0 0 0 0 0 0 0 0 0 0 0 0 0 0 0 0 0 0 0 0 0 0 0 0 0 0 0 0 0 0 0 0
0 0 0 0 0 0 0 0 0 0 0 0 0 0 0 0 0 0 0 0 0 0 0 0 0 0 0 0 0 0 0 0 0 0 0 0 0 0 0 0 0 0 0 0 0
0 0 0 0 0 0 0 0 0 0 0 0 0 0 0 0 0 0 0 0 0 0 0 0 0 0 0 0 0 0 0 0 0 0 0 0 0 0 0 0 0 0 0 0 0
0 0 0 0 0 0 0 0 0 0 0 0 0 0 0 0 0 0 0 0 0 0 0 0 0 0 0 0 0 0 0 0 0 0 0 0 0 0 0 0 0 0 0 0 0
0 0 0 0 0 0 0 0 0 0 0 0 0 0 0 0 0 0 0 0 0 0 0 0 0 0 0 0 0 0 0 0 0 0 0 0 0 0 0 0 0 0 0 0 0
-18 -19 0 0 0 0 0 0 0 0 0 0 0 0 0 0 0 0 0 0 0 0 0 0 0 0 0 0 0 0 0 0 0 0 0 0 0 0 0 0 0 0 0 0 0
-10 -17 0 0 0 0 0 0 0 0 0 0 0 0 0 0 0 0 0 0 0 0 0 0 0 0 0 0 0 0 0 0 0 0 0 0 0 0 0 0 0 0 0 0 0
0 0 0 0 0 0 0 0 0 0 0 0 0 0 0 0 0 0 0 0 0 0 0 0 0 0 0 0 0 0 0 0 0 0 0 0 0 0 0 0 0 0 0 0 0
0 0 0 0 -6 0 0 -25 0 0 0 0 0 0 0 0 0 0 0 0 0 0 0 0 0 0 0 0 0 0 0 0 0 0 0 0 0 0 0 0 0 0 0 0 0
0 0 0 0 0 0 -33 -2 0 0 0 0 0 0 0 0 0 0 0 0 0 0 0 0 0 0 0 0 0 0 0 0 0 0 0 0 0 0 0 0 0 0 0 0 0
0 0 0 0 -1 -8 -3 0 0 0 0 0 0 0 0 0 0 0 0 0 0 0 0 0 0 0 0 0 0 0 0 0 0 0 0 0 0 0 0 0 0 0 0 0 0
0 0 0 0 -9 -8 -4 0 0 0 0 0 0 0 0 0 0 0 0 0 0 0 0 0 0 0 0 0 0 0 0 0 -8 0 0 0 0 0 0 0 0 0 0 0 0
0 0 0 0 -4 0 0 0 0 0 0 0 0 0 0 0 0 0 0 0 0 0 0 0 0 0 0 0 0 0 0 -1 -3 0 -2 0 0 0 0 0 0 0 0 0 0
0 0 0 -4 0 0 0 0 0 0 0 0 0 0 0 0 0 0 0 0 0 0 0 0 0 0 0 0 0 0 0 0 -5 -4 -12 -5 -1 0 0 0 0 0 0 0 0
0 0 0 -3 0 0 0 0 0 0 0 0 0 0 0 0 0 0 0 0 0 0 0 0 -3 0 0 0 0 0 0 0 0 0 -8 -2 0 0 0 0 0 0 0 0 0
0 0 0 -2 0 0 0 0 0 0 0 0 0 0 0 0 0 0 0 0 0 0 0 0 0 0 0 0 0 0 0 0 0 0 0 0 0 0 0 0 0 0 0 0 0
0 0 0 -1 0 0 0 0 0 0 0 0 0 0 0 0 0 0 0 0 0 0 0 0 0 0 0 0 0 0 0 0 0 0 0 0 0 0 0 0 0 0 0 0 0
0 0 0 0 0 0 0 0 0 0 0 0 0 0 0 0 0 0 0 0 0 0 0 0 0 0 0 0 0 0 0 0 0 0 0 0 0 0 0 0 0 0 0 0 0
0 0 0 0 0 0 0 0 0 0 0 0 0 0 0 0 0 0 0 0 0 0 0 0 0 0 0 0 0 0 0 0 0 0 0 0 0 0 0 0 0 0 0 0 0
Wind_Speed
18 18 19 20 20 21 21 21 22 23 24 24 24 25 25 26 26 22 24 16 15 11 14 13 14 15 16 16 16 17 18 17 17 22 21 19 20 19 18 15 17 12 10 5 10
20 20 20 21 21 22 22 23 23 24 25 26 26 26 27 28 26 25 17 15 14 11 13 14 16 15 18 17 16 17 18 17 15 21 26 25 23 23 22 20 11 11 10 15 11
21 22 22 22 22 23 24 24 25 26 27 27 27 28 28 27 25 20 17 15 13 10 15 14 18 15 19 17 16 16 17 16 17 25 26 24 26 24 21 16 9 7 11 20 13
22 23 23 23 24 24 25 26 27 28 29 28 28 28 28 22 23 18 18 16 14 12 18 18 17 17 19 18 14 16 13 12 19 22 27 25 25 25 18 11 10 9 10 17 8
24 24 24 24 25 25 26 27 28 29 29 29 28 26 22 23 22 20 19 17 15 14 17 15 15 15 20 19 23 20 19 21 23 24 23 25 21 19 16 7 13 12 16 11 19
24 24 24 24 25 26 27 29 30 31 30 28 25 22 21 26 18 17 17 15 16 16 18 15 17 18 22 21 23 24 27 28 27 29 23 19 18 20 22 26 33 31 25 26 27
24 23 24 25 26 27 28 30 31 30 27 24 21 19 22 23 18 17 16 17 16 16 17 19 18 19 22 24 22 25 30 33 28 22 21 21 24 19 20 29 28 34 33 31 35
23 23 24 24 25 27 29 30 31 27 25 22 17 19 24 19 18 17 17 19 18 17 17 18 18 19 20 22 27 30 27 29 25 28 26 23 27 27 27 27 36 40 39 39 27
22 23 24 25 26 28 30 32 28 24 22 18 19 21 25 18 18 18 18 17 16 17 17 17 18 19 20 24 29 24 28 26 31 29 27 27 35 30 29 35 34 35 38 28 27
22 22 23 25 27 29 31 30 22 23 20 20 21 24 20 20 18 17 17 15 18 16 19 19 19 21 22 21 27 26 26 29 34 31 39 41 45 37 36 39 43 34 32 26 26
23 22 22 24 27 29 27 23 25 25 22 23 23 24 22 19 18 20 18 16 17 20 23 19 21 22 22 18 21 26 28 31 33 37 38 38 39 43 37 33 35 30 20 21 23
22 21 21 23 25 27 23 24 23 23 32 26 27 26 22 20 25 21 16 19 18 22 19 21 25 21 21 23 26 29 34 35 33 27 31 35 42 38 37 28 22 18 18 19 20
21 20 20 23 24 23 21 20 19 20 31 31 25 24 22 20 24 19 15 18 20 22 20 22 23 17 22 24 26 27 30 31 31 30 31 34 35 28 25 21 21 21 18 19 20
22 20 20 20 23 19 21 16 17 21 33 30 23 20 18 16 19 14 13 14 17 21 20 22 20 19 21 23 21 26 25 26 29 33 34 30 39 30 24 26 21 19 19 19 20
22 20 19 16 20 19 16 13 16 20 37 20 17 14 13 13 13 16 12 13 15 16 17 19 17 17 20 20 18 25 25 27 30 32 36 32 34 30 22 22 19 18 18 19 19
18 17 15 17 17 14 10 11 16 25 31 21 16 16 16 16 16 14 13 14 14 19 19 20 18 19 20 20 21 23 28 29 30 29 39 33 29 34 26 20 16 16 17 17 18
16 12 11 12 15 7 8 12 24 27 20 22 20 17 18 17 17 15 15 16 19 24 26 26 24 22 21 23 23 24 28 36 37 34 37 29 33 33 29 18 15 15 16 16 17
13 10 11 15 8 8 9 18 29 24 23 19 18 17 20 16 19 18 20 24 20 23 29 34 36 20 20 22 25 23 25 31 39 38 39 34 37 33 23 17 15 16 15 16 18
9 13 14 14 12 14 14 27 28 24 21 20 19 24 25 22 23 21 24 26 23 20 27 28 30 20 20 20 20 25 30 25 32 34 40 36 30 25 21 19 17 18 18 18 18
13 14 15 13 14 16 21 26 25 20 19 21 28 23 27 23 23 24 26 24 22 20 19 25 36 25 22 20 22 24 19 31 30 41 44 39 37 36 27 26 22 20 20 18 19
14 17 16 12 14 20 27 27 25 21 21 25 29 29 27 26 25 27 28 23 21 21 20 21 28 29 25 26 26 26 28 27 29 29 41 46 42 27 27 21 22 22 22 20 22
17 22 16 17 24 26 31 27 25 24 23 26 26 27 30 29 32 31 30 28 21 20 27 23 29 39 35 24 24 26 29 28 37 39 36 41 45 25 25 19 21 23 24 24 24
21 22 17 17 30 32 28 28 28 27 26 25 27 26 26 31 34 32 30 24 22 23 24 23 31 41 41 32 25 29 28 27 29 33 43 47 46 25 24 24 27 28 30 28 28
22 29 25 24 27 30 32 32 31 25 27 25 27 27 27 29 27 29 27 23 22 22 20 21 30 35 43 35 29 35 35 34 33 40 42 44 46 45 45 41 40 38 32 30 29
26 27 25 30 33 31 28 30 31 31 26 26 30 29 30 33 33 33 28 24 21 18 21 23 37 34 36 36 37 39 43 42 42 42 46 50 49 46 46 46 40 34 30 30 31
25 28 27 31 28 28 31 35 33 30 27 32 33 30 30 36 34 33 28 28 29 24 26 23 38 36 43 37 39 45 43 43 45 46 47 46 50 43 39 36 35 33 32 32 32
26 24 27 29 29 32 36 35 34 28 28 29 29 30 31 27 22 21 21 20 22 25 28 29 32 37 48 38 39 50 44 43 40 38 40 45 41 37 40 39 34 33 33 34 35
Wind_Direction
318 319 320 322 324 325 327 329 326 319 314 310 304 300 299 299 294 334 320 353 359 27 10 15 8 9 4 0 1 359 351 351 356 352 354 357 356 359 3 2 357 16 10 18 15
312 315 318 320 322 324 324 323 321 314 308 306 305 304 306 308 319 322 346 356 4 28 14 7 358 1 348 351 357 349 346 349 356 347 334 334 340 344 344 345 344 346 357 1 16
308 311 314 317 319 319 319 319 317 310 304 302 302 306 310 318 322 333 347 356 3 21 355 354 342 346 337 341 341 346 341 347 342 331 332 333 330 335 339 338 330 297 338 338 343
305 308 311 313 315 316 315 313 311 309 306 305 307 310 313 331 322 338 340 345 348 351 337 338 338 336 336 337 342 338 337 340 336 335 329 327 330 331 334 276 311 304 318 334 295
302 305 308 310 311 313 313 312 310 308 308 310 313 316 325 320 319 333 336 339 342 342 338 341 340 339 332 335 330 328 331 332 331 329 327 325 327 329 321 284 340 335 335 319 332
301 303 305 308 309 310 311 310 309 308 310 312 317 323 322 313 332 336 338 339 337 334 331 331 335 335 327 325 323 326 323 324 326 321 323 323 331 333 334 332 324 329 335 333 328
299 302 304 305 306 307 308 308 308 310 314 318 323 326 318 315 329 334 336 333 332 332 325 328 325 327 329 324 329 327 322 321 326 334 333 332 325 327 332 328 331 320 320 326 328
297 300 303 306 308 307 307 308 309 315 319 323 327 324 313 324 329 328 329 327 327 326 326 328 332 325 322 326 321 319 322 321 332 333 331 328 319 324 326 329 318 311 311 315 331
295 298 301 303 305 307 306 306 312 317 322 330 323 318 311 328 324 327 329 329 336 334 332 332 328 324 326 320 318 324 319 321 320 325 329 325 316 323 323 318 319 317 315 327 328
293 298 301 302 304 306 305 307 316 316 319 321 317 312 315 315 323 326 328 332 327 331 329 326 324 320 321 318 316 320 319 319 317 322 314 311 305 315 316 310 305 317 320 327 329
291 295 300 303 303 307 312 314 308 307 307 304 309 306 313 320 324 319 324 323 324 318 313 316 314 312 314 312 317 318 316 316 317 317 315 314 314 314 317 316 316 322 333 336 340
287 294 299 303 305 307 312 306 308 311 301 302 300 299 306 311 306 311 319 313 313 309 313 312 304 308 314 314 314 314 313 315 320 327 324 320 316 321 322 331 338 345 345 343 343
284 291 299 303 305 305 306 310 322 322 305 304 306 301 301 308 304 304 307 311 308 304 302 301 314 326 318 317 315 315 315 318 319 324 324 325 323 329 343 350 352 352 354 353 353
280 288 296 303 299 300 302 315 324 326 303 304 308 312 315 315 312 326 323 322 316 310 310 312 317 314 319 320 320 319 327 323 322 322 320 330 319 325 327 328 337 346 351 356 357
276 281 289 288 296 294 307 318 325 323 293 312 317 339 340 327 334 330 339 326 317 321 322 322 325 323 321 321 325 320 326 324 321 317 316 319 316 325 330 326 333 341 349 354 359
268 275 280 287 290 300 310 327 321 298 290 303 318 316 317 321 321 332 330 335 330 319 317 318 327 322 318 320 319 324 323 320 317 317 310 316 312 318 324 322 330 340 347 350 351
263 262 268 286 287 288 303 310 292 286 303 299 303 308 309 311 312 313 312 312 313 312 310 314 313 313 316 313 320 320 319 315 311 310 309 319 314 311 323 328 327 331 339 344 346
243 256 273 286 293 285 287 282 280 291 290 303 308 307 301 306 307 304 305 303 308 311 309 307 307 319 321 312 314 314 316 311 309 308 308 314 308 313 334 341 344 340 340 339 337
239 266 270 282 281 274 266 273 279 283 293 296 300 297 297 298 302 301 298 299 305 303 301 307 307 323 323 323 320 316 309 318 309 309 305 306 311 321 327 331 335 329 329 328 330
255 267 272 276 276 275 270 274 280 289 296 295 287 294 296 298 293 296 296 308 304 308 307 306 302 308 312 316 318 312 317 310 311 304 302 305 305 306 311 313 318 319 321 325 327
275 276 272 269 276 269 266 275 281 287 293 291 288 289 293 296 298 297 300 305 306 308 311 307 301 304 310 307 306 310 305 308 307 304 302 302 303 321 321 317 315 316 317 317 318
266 268 263 262 263 268 266 277 284 284 286 287 289 289 289 292 293 292 293 296 306 304 299 302 303 296 298 308 310 306 303 303 299 302 301 301 299 318 322 321 320 314 311 312 311
259 268 274 262 265 266 276 278 280 283 281 284 283 286 288 287 289 289 289 299 301 300 298 300 298 297 300 306 309 301 304 306 308 306 297 297 300 314 321 318 314 310 308 307 307
266 263 270 265 274 273 273 276 276 281 282 281 289 286 288 286 286 294 295 298 302 301 305 303 294 292 291 300 309 302 303 305 305 300 300 295 299 299 303 308 308 306 303 303 304
268 267 269 268 266 268 274 281 274 277 280 278 283 280 283 285 283 284 290 298 305 302 303 300 293 294 295 298 300 297 296 296 296 296 295 297 297 298 304 306 308 309 306 305 304
261 271 274 275 273 267 268 274 276 275 278 279 279 282 280 280 283 289 287 289 291 298 297 300 295 298 295 298 298 295 294 297 295 296 295 295 295 302 306 308 308 307 307 307 307
272 284 275 274 271 270 272 272 275 279 285 284 279 282 283 289 295 298 301 300 298 294 295 296 296 298 295 301 301 296 296 296 297 297 300 299 303 308 306 306 307 309 309 308 308